This is the latest recevied weather packets stored in our database for station/object KE0PRS. If no packets are shown the sender has not sent any weather packets the latest 1 day(s).
| Time | Temp. | Humidity | Pressure | Rain* | Wind** | Luminosity | Snow |
|---|---|---|---|---|---|---|---|
| 1778005880 | 13.89° C | 47% | 1013.3 hPa | 0 mm | 1.34 m/s, 105° | 680 W/m² | - |
| 1778005575 | 13.89° C | 47% | 1013.3 hPa | 0 mm | 1.34 m/s, 339° | 457 W/m² | - |
| 1778005273 | 13.89° C | 46% | 1013.4 hPa | 0 mm | 4.02 m/s, 12° | 690 W/m² | - |
| 1778004969 | 13.89° C | 45% | 1013.2 hPa | 0 mm | 4.47 m/s, 348° | 521 W/m² | - |
| 1778004667 | 13.89° C | 47% | 1013.4 hPa | 0 mm | 1.79 m/s, 41° | 523 W/m² | - |
| 1778004362 | 14.44° C | 46% | 1013.5 hPa | 0 mm | 2.24 m/s, 13° | 517 W/m² | - |
| 1778004060 | 13.89° C | 48% | 1013.6 hPa | 0 mm | 1.79 m/s, 350° | 744 W/m² | - |
| 1778003755 | 13.89° C | 48% | 1013.9 hPa | 0 mm | 0.89 m/s, 108° | 670 W/m² | - |
| 1778003452 | 13.33° C | 47% | 1013.9 hPa | 0 mm | 2.68 m/s, 35° | 481 W/m² | - |
| 1778003149 | 12.78° C | 50% | 1013.9 hPa | 0 mm | 0.45 m/s, 89° | 514 W/m² | - |
| 1778002845 | 12.78° C | 50% | 1014 hPa | 0 mm | 1.34 m/s, 42° | 427 W/m² | - |
| 1778002542 | 12.78° C | 49% | 1014.1 hPa | 0 mm | 0.89 m/s, 10° | 450 W/m² | - |
| 1778002239 | 12.78° C | 50% | 1014 hPa | 0 mm | 1.34 m/s, 14° | 450 W/m² | - |
| 1778001937 | 12.78° C | 49% | 1013.7 hPa | 0 mm | 2.24 m/s, 68° | 462 W/m² | - |
| 1778001633 | 12.78° C | 49% | 1014 hPa | 0 mm | 1.34 m/s, 168° | 444 W/m² | - |
| 1778001328 | 12.78° C | 50% | 1014 hPa | 0 mm | 0.45 m/s, 162° | 368 W/m² | - |
| 1778001025 | 12.22° C | 51% | 1013.9 hPa | 0 mm | 1.34 m/s, 135° | 421 W/m² | - |
| 1778000722 | 12.22° C | 51% | 1013.7 hPa | 0 mm | 1.79 m/s, 28° | 456 W/m² | - |
| 1778000418 | 11.67° C | 51% | 1014 hPa | 0 mm | 1.79 m/s, 96° | 396 W/m² | - |
| 1778000114 | 11.11° C | 53% | 1014 hPa | 0 mm | 3.13 m/s, 20° | 347 W/m² | - |
| 1777999809 | 11.67° C | 52% | 1013.6 hPa | 0 mm | 3.13 m/s, 43° | 294 W/m² | - |
| 1777999506 | 11.67° C | 52% | 1013.6 hPa | 0 mm | 3.58 m/s, 62° | 242 W/m² | - |
| 1777999204 | 11.67° C | 52% | 1013.6 hPa | 0 mm | 0.89 m/s, 7° | 280 W/m² | - |
| 1777998902 | 11.67° C | 51% | 1013.5 hPa | 0 mm | 2.24 m/s, 255° | 334 W/m² | - |
| 1777998602 | 11.67° C | 52% | 1013.4 hPa | 0 mm | 0.89 m/s, 13° | 394 W/m² | - |
* Rain latest hour (hover to see other rain measurements)
** Current wind speed in m/s (hover to see current wind gust speed)